Regional Weather Roundup
Issued by NWS

Home | Current Version | Previous Version | Text Only | Print | Product List | Glossary Off
Versions: 1 2 3 4 5 6 7 8 9 10 11 12 13 14 15 16 17 18 19 20 21 22 23 24 25 26 27 28 29 30 31 32 33 34 35 36 37 38 39 40 41 42 43 44 45 46 47 48 49 50

000
ASUS43 KFSD 040202
RWRSD

WEATHER ROUNDUP FOR SOUTH DAKOTA
NATIONAL WEATHER SERVICE SIOUX FALLS SD
900 PM CDT MON AUG 03 2015

NOTE: "FAIR" INDICATES FEW OR NO CLOUDS BELOW 12,000 FEET WITH NO
SIGNIFICANT WEATHER AND/OR OBSTRUCTIONS TO VISIBILITY.


SDZ001>005-009-010-012>017-040300-
NORTHWEST AND NORTH CENTRAL SOUTH DAKOTA

CITY           SKY/WX    TMP DP  RH WIND       PRES   REMARKS
BUFFALO          N/A     76  54  46 E9        29.91R
FAITH            N/A     78  50  37 E7        29.96R
MOBRIDGE       CLEAR     75  54  47 E7        29.93R
$$

SDZ012>016-024>037-041>051-057-063-072>074-040300-
SOUTHWEST AND SOUTH CENTRAL SOUTH DAKOTA

CITY           SKY/WX    TMP DP  RH WIND       PRES   REMARKS
RAPID CTY ARPT MOCLDY    75  59  57 E10       29.96R
PIERRE         PTCLDY    76  56  49 E5        29.93R
CUSTER         CLOUDY    68  58  70 E9        30.10S
ELLSWORTH AFB  MOCLDY    77  60  55 E10       29.96R
PHILIP         CLOUDY    76  61  59 E7        29.93R
PINE RIDGE     MOCLDY    80  62  54 E9        29.93R
WINNER         FAIR      75  59  57 E8        29.95S
$$

SDZ004>011-016>023-039-040-040300-
NORTHEAST SOUTH DAKOTA

CITY           SKY/WX    TMP DP  RH WIND       PRES   REMARKS
ABERDEEN       CLEAR     72  56  57 E6        29.95R
WATERTOWN      CLEAR     69  52  54 CALM      29.96S
BROOKINGS      CLEAR     72  55  56 N5        29.99R
SISSETON         N/A     68  55  63 NW3       29.93S
$$

SDZ017-020-022-023-036>040-048>070-040300-
SOUTHEAST SOUTH DAKOTA

CITY           SKY/WX    TMP DP  RH WIND       PRES   REMARKS
SIOUX FALLS    MOCLDY    71  62  73 N5        29.95S
HURON          CLEAR     73  59  61 E5        29.94S
CHAMBERLAIN    PTCLDY    72  62  72 E5        29.95S
MITCHELL       PTCLDY    71  60  68 E5        29.95R
YANKTON          N/A     73  63  68 E3        29.94R VSB 3/4
$$

ABBREVIATIONS USED IN REMARKS
   TC - TEMPERATURE IN CELSIUS
  WCI - WIND CHILL INDEX
   HX - HEAT INDEX
  VSB - VISIBILITY




USA.gov is the U.S. government's official web portal to all federal, state and local government web resources and services.